This is the latest recevied weather packets stored in our database for station/object EA5FOG-11. If no packets are shown the sender has not sent any weather packets the latest 1 day(s).
| Time | Temp. | Humidity | Pressure | Rain* | Wind** | Luminosity | Snow |
|---|---|---|---|---|---|---|---|
| 1778058694 | 32.22° C | 27% | 952.9 hPa | - | - | - | - |
| 1778057793 | 32.78° C | 28% | 953 hPa | - | - | - | - |
| 1778056892 | 32.22° C | 29% | 953.1 hPa | - | - | - | - |
| 1778055090 | 31.11° C | 31% | 953.2 hPa | - | - | - | - |
| 1778054189 | 28.33° C | 33% | 953.2 hPa | - | - | - | - |
| 1778053288 | 27.22° C | 34% | 953.2 hPa | - | - | - | - |
| 1778050606 | 17.22° C | 41% | 953.3 hPa | - | - | - | - |
| 1778049705 | 17.22° C | 41% | 953.4 hPa | - | - | - | - |
| 1778048804 | 17.22° C | 41% | 953.5 hPa | - | - | - | - |
| 1778047903 | 15.56° C | 42% | 953.4 hPa | - | - | - | - |
| 1778046102 | 13.33° C | 43% | 953.1 hPa | - | - | - | - |
| 1778045201 | 12.78° C | 43% | 952.9 hPa | - | - | - | - |
| 1778044300 | 12.22° C | 43% | 952.9 hPa | - | - | - | - |
| 1778043399 | 12.22° C | 43% | 952.7 hPa | - | - | - | - |
| 1778041598 | 12.78° C | 43% | 952.7 hPa | - | - | - | - |
| 1778040697 | 12.78° C | 42% | 952.7 hPa | - | - | - | - |
| 1778039796 | 12.78° C | 42% | 952.7 hPa | - | - | - | - |
| 1778038895 | 13.33° C | 42% | 952.7 hPa | - | - | - | - |
| 1778037094 | 13.89° C | 41% | 953.1 hPa | - | - | - | - |
| 1778036193 | 14.44° C | 40% | 953.2 hPa | - | - | - | - |
| 1778035292 | 14.44° C | 40% | 953.2 hPa | - | - | - | - |
| 1778034391 | 14.44° C | 40% | 953.2 hPa | - | - | - | - |
| 1778032590 | 15° C | 39% | 953.3 hPa | - | - | - | - |
| 1778031689 | 15° C | 39% | 953.3 hPa | - | - | - | - |
| 1778029953 | 15.56° C | 38% | 953.5 hPa | - | - | - | - |
* Rain since midnight (hover to see other rain measurements)
** Current wind speed in m/s (hover to see current wind gust speed)